Year,Month,Day,Hour,Minute,Value (Times are PST for temperature in C)
2009,03,26,00,00,1.00
2009,03,26,00,01,1.00
2009,03,26,00,02,1.00
2009,03,26,00,03,1.00
2009,03,26,00,04,1.00
2009,03,26,00,05,1.00
2009,03,26,00,06,1.00
2009,03,26,00,07,1.00
2009,03,26,00,08,0.90
2009,03,26,00,09,0.90
2009,03,26,00,10,0.90
2009,03,26,00,11,0.90
2009,03,26,00,12,0.80
2009,03,26,00,13,0.80
2009,03,26,00,14,0.80
2009,03,26,00,15,0.70
2009,03,26,00,16,0.70
2009,03,26,00,17,0.70
2009,03,26,00,18,0.70
2009,03,26,00,19,0.70
2009,03,26,00,20,0.70
2009,03,26,00,21,0.60
2009,03,26,00,22,0.60
2009,03,26,00,23,0.60
2009,03,26,00,24,0.60
2009,03,26,00,25,0.60
2009,03,26,00,26,0.60
2009,03,26,00,27,0.60
2009,03,26,00,28,0.60
2009,03,26,00,29,0.60
2009,03,26,00,30,0.60
2009,03,26,00,31,0.50
2009,03,26,00,32,0.50
2009,03,26,00,33,0.50
2009,03,26,00,34,0.50
2009,03,26,00,35,0.50
2009,03,26,00,36,0.40
2009,03,26,00,37,0.40
2009,03,26,00,38,0.40
2009,03,26,00,39,0.40
2009,03,26,00,40,0.40
2009,03,26,00,41,0.40
2009,03,26,00,42,0.40
2009,03,26,00,43,0.40
2009,03,26,00,44,0.50
2009,03,26,00,45,0.50
2009,03,26,00,46,0.50
2009,03,26,00,47,0.50
2009,03,26,00,48,0.50
2009,03,26,00,49,0.50
2009,03,26,00,50,0.50
2009,03,26,00,51,0.50
2009,03,26,00,52,0.50
2009,03,26,00,53,0.60
2009,03,26,00,54,0.60
2009,03,26,00,55,0.60
2009,03,26,00,56,0.60
2009,03,26,00,57,0.60
2009,03,26,00,58,0.60
2009,03,26,00,59,0.50
2009,03,26,01,00,0.50
2009,03,26,01,01,0.50
2009,03,26,01,02,0.50
2009,03,26,01,03,0.50
2009,03,26,01,04,0.50
2009,03,26,01,05,0.50
2009,03,26,01,06,0.60
2009,03,26,01,07,0.60
2009,03,26,01,08,0.60
2009,03,26,01,09,0.70
2009,03,26,01,10,0.70
2009,03,26,01,11,0.70
2009,03,26,01,12,0.70
2009,03,26,01,13,0.70
2009,03,26,01,14,0.70
2009,03,26,01,15,0.70
2009,03,26,01,16,0.70
2009,03,26,01,17,0.70
2009,03,26,01,18,0.70
2009,03,26,01,19,0.70
2009,03,26,01,20,0.70
2009,03,26,01,21,0.70
2009,03,26,01,22,0.70
2009,03,26,01,23,0.70
2009,03,26,01,24,0.70
2009,03,26,01,25,0.70
2009,03,26,01,26,0.70
2009,03,26,01,27,0.70
2009,03,26,01,28,0.60
2009,03,26,01,29,0.60
2009,03,26,01,30,0.60
2009,03,26,01,31,0.60
2009,03,26,01,32,0.60
2009,03,26,01,33,0.60
2009,03,26,01,34,0.60
2009,03,26,01,35,0.60
2009,03,26,01,36,0.60
2009,03,26,01,37,0.60
2009,03,26,01,38,0.60
2009,03,26,01,39,0.60
2009,03,26,01,40,0.60
2009,03,26,01,41,0.60
2009,03,26,01,42,0.60
2009,03,26,01,43,0.60
2009,03,26,01,44,0.50
2009,03,26,01,45,0.50
2009,03,26,01,46,0.60
2009,03,26,01,47,0.60
2009,03,26,01,48,0.60
2009,03,26,01,49,0.60
2009,03,26,01,50,0.60
2009,03,26,01,51,0.60
2009,03,26,01,52,0.60
2009,03,26,01,53,0.60
2009,03,26,01,54,0.60
2009,03,26,01,55,0.60
2009,03,26,01,56,0.60
2009,03,26,01,57,0.60
2009,03,26,01,58,0.60
2009,03,26,01,59,0.60
2009,03,26,02,00,0.60
2009,03,26,02,01,0.60
2009,03,26,02,02,0.60
2009,03,26,02,03,0.60
2009,03,26,02,04,0.60
2009,03,26,02,05,0.60
2009,03,26,02,06,0.60
2009,03,26,02,07,0.60
2009,03,26,02,08,0.60
2009,03,26,02,09,0.60
2009,03,26,02,10,0.60
2009,03,26,02,11,0.60
2009,03,26,02,12,0.50
2009,03,26,02,13,0.50
2009,03,26,02,14,0.50
2009,03,26,02,15,0.60
2009,03,26,02,16,0.60
2009,03,26,02,17,0.60
2009,03,26,02,18,0.70
2009,03,26,02,19,0.70
2009,03,26,02,20,0.70
2009,03,26,02,21,0.70
2009,03,26,02,22,0.70
2009,03,26,02,23,0.70
2009,03,26,02,24,0.70
2009,03,26,02,25,0.70
2009,03,26,02,26,0.70
2009,03,26,02,27,0.70
2009,03,26,02,28,0.70
2009,03,26,02,29,0.70
2009,03,26,02,30,0.70
2009,03,26,02,31,0.70
2009,03,26,02,32,0.70
2009,03,26,02,33,0.70
2009,03,26,02,34,0.70
2009,03,26,02,35,0.70
2009,03,26,02,36,0.70
2009,03,26,02,37,0.70
2009,03,26,02,38,0.80
2009,03,26,02,39,0.80
2009,03,26,02,40,0.80
2009,03,26,02,41,0.80
2009,03,26,02,42,0.90
2009,03,26,02,43,0.90
2009,03,26,02,44,0.90
2009,03,26,02,45,0.90
2009,03,26,02,46,0.90
2009,03,26,02,47,0.90
2009,03,26,02,48,0.90
2009,03,26,02,49,0.90
2009,03,26,02,50,0.90
2009,03,26,02,51,0.90
2009,03,26,02,52,0.80
2009,03,26,02,53,0.80
2009,03,26,02,54,0.80
2009,03,26,02,55,0.80
2009,03,26,02,56,0.80
2009,03,26,02,57,0.80
2009,03,26,02,58,0.70
2009,03,26,02,59,0.70
2009,03,26,03,00,0.60
2009,03,26,03,01,0.60
2009,03,26,03,02,0.60
2009,03,26,03,03,0.50
2009,03,26,03,04,0.50
2009,03,26,03,05,0.40
2009,03,26,03,06,0.40
2009,03,26,03,07,0.40
2009,03,26,03,08,0.40
2009,03,26,03,09,0.40
2009,03,26,03,10,0.40
2009,03,26,03,11,0.40
2009,03,26,03,12,0.40
2009,03,26,03,13,0.40
2009,03,26,03,14,0.40
2009,03,26,03,15,0.40
2009,03,26,03,16,0.30
2009,03,26,03,17,0.30
2009,03,26,03,18,0.30
2009,03,26,03,19,0.30
2009,03,26,03,20,0.30
2009,03,26,03,21,0.30
2009,03,26,03,22,0.40
2009,03,26,03,23,0.40
2009,03,26,03,24,0.40
2009,03,26,03,25,0.40
2009,03,26,03,26,0.40
2009,03,26,03,27,0.50
2009,03,26,03,28,0.50
2009,03,26,03,29,0.50
2009,03,26,03,30,0.50
2009,03,26,03,31,0.50
2009,03,26,03,32,0.50
2009,03,26,03,33,0.50
2009,03,26,03,34,0.50
2009,03,26,03,35,0.40
2009,03,26,03,36,0.40
2009,03,26,03,37,0.40
2009,03,26,03,38,0.40
2009,03,26,03,39,0.40
2009,03,26,03,40,0.40
2009,03,26,03,41,0.40
2009,03,26,03,42,0.40
2009,03,26,03,43,0.40
2009,03,26,03,44,0.40
2009,03,26,03,45,0.40
2009,03,26,03,46,0.40
2009,03,26,03,47,0.40
2009,03,26,03,48,0.40
2009,03,26,03,49,0.30
2009,03,26,03,50,0.30
2009,03,26,03,51,0.30
2009,03,26,03,52,0.30
2009,03,26,03,53,0.30
2009,03,26,03,54,0.30
2009,03,26,03,55,0.30
2009,03,26,03,56,0.40
2009,03,26,03,57,0.40
2009,03,26,03,58,0.40
2009,03,26,03,59,0.40
2009,03,26,04,00,0.40
2009,03,26,04,01,0.40
2009,03,26,04,02,0.40
2009,03,26,04,03,0.40
2009,03,26,04,04,0.40
2009,03,26,04,05,0.40
2009,03,26,04,06,0.40
2009,03,26,04,07,0.40
2009,03,26,04,08,0.40
2009,03,26,04,09,0.30
2009,03,26,04,10,0.30
2009,03,26,04,11,0.20
2009,03,26,04,12,0.20
2009,03,26,04,13,0.10
2009,03,26,04,14,0.10
2009,03,26,04,15,0.10
2009,03,26,04,16,0.10
2009,03,26,04,17,0.10
2009,03,26,04,18,0.10
2009,03,26,04,19,0.20
2009,03,26,04,20,0.20
2009,03,26,04,21,0.20
2009,03,26,04,22,0.20
2009,03,26,04,23,0.20
2009,03,26,04,24,0.20
2009,03,26,04,25,0.30
2009,03,26,04,26,0.30
2009,03,26,04,27,0.30
2009,03,26,04,28,0.40
2009,03,26,04,29,0.40
2009,03,26,04,30,0.40
2009,03,26,04,31,0.50
2009,03,26,04,32,0.50
2009,03,26,04,33,0.50
2009,03,26,04,34,0.60
2009,03,26,04,35,0.60
2009,03,26,04,36,0.60
2009,03,26,04,37,0.50
2009,03,26,04,38,0.50
2009,03,26,04,39,0.50
2009,03,26,04,40,0.40
2009,03,26,04,41,0.40
2009,03,26,04,42,0.40
2009,03,26,04,43,0.40
2009,03,26,04,44,0.40
2009,03,26,04,45,0.50
2009,03,26,04,46,0.50
2009,03,26,04,47,0.50
2009,03,26,04,48,0.60
2009,03,26,04,49,0.60
2009,03,26,04,50,0.60
2009,03,26,04,51,0.70
2009,03,26,04,52,0.70
2009,03,26,04,53,0.80
2009,03,26,04,54,0.80
2009,03,26,04,55,0.80
2009,03,26,04,56,0.80
2009,03,26,04,57,0.80
2009,03,26,04,58,0.80
2009,03,26,04,59,0.80
2009,03,26,05,00,0.80
2009,03,26,05,01,0.80
2009,03,26,05,02,0.80
2009,03,26,05,03,0.80
2009,03,26,05,04,0.80
2009,03,26,05,05,0.70
2009,03,26,05,06,0.70
2009,03,26,05,07,0.70
2009,03,26,05,08,0.60
2009,03,26,05,09,0.60
2009,03,26,05,10,0.60
2009,03,26,05,11,0.60
2009,03,26,05,12,0.60
2009,03,26,05,13,0.60
2009,03,26,05,14,0.60
2009,03,26,05,15,0.50
2009,03,26,05,16,0.50
2009,03,26,05,17,0.50
2009,03,26,05,18,0.50
2009,03,26,05,19,0.40
2009,03,26,05,20,0.40
2009,03,26,05,21,0.40
2009,03,26,05,22,0.40
2009,03,26,05,23,0.40
2009,03,26,05,24,0.40
2009,03,26,05,25,0.30
2009,03,26,05,26,0.30
2009,03,26,05,27,0.30
2009,03,26,05,28,0.30
2009,03,26,05,29,0.30
2009,03,26,05,30,0.30
2009,03,26,05,31,0.30
2009,03,26,05,32,0.30
2009,03,26,05,33,0.30
2009,03,26,05,34,0.30
2009,03,26,05,35,0.20
2009,03,26,05,36,0.20
2009,03,26,05,37,0.20
2009,03,26,05,38,0.20
2009,03,26,05,39,0.30
2009,03,26,05,40,0.30
2009,03,26,05,41,0.40
2009,03,26,05,42,0.40
2009,03,26,05,43,0.40
2009,03,26,05,44,0.40
2009,03,26,05,45,0.50
2009,03,26,05,46,0.50
2009,03,26,05,47,0.60
2009,03,26,05,48,0.60
2009,03,26,05,49,0.60
2009,03,26,05,50,0.60
2009,03,26,05,51,0.60
2009,03,26,05,52,0.60
2009,03,26,05,53,0.60
2009,03,26,05,54,0.70
2009,03,26,05,55,0.70
2009,03,26,05,56,0.70
2009,03,26,05,57,0.70
2009,03,26,05,58,0.70
2009,03,26,05,59,0.70
2009,03,26,06,00,0.70
2009,03,26,06,01,0.70
2009,03,26,06,02,0.70
2009,03,26,06,03,0.70
2009,03,26,06,04,0.70
2009,03,26,06,05,0.80
2009,03,26,06,06,0.80
2009,03,26,06,07,0.80
2009,03,26,06,08,0.80
2009,03,26,06,09,0.80
2009,03,26,06,10,0.80
2009,03,26,06,11,0.90
2009,03,26,06,12,0.90
2009,03,26,06,13,0.90
2009,03,26,06,14,1.00
2009,03,26,06,15,1.00
2009,03,26,06,16,1.00
2009,03,26,06,17,1.10
2009,03,26,06,18,1.10
2009,03,26,06,19,1.10
2009,03,26,06,20,1.20
2009,03,26,06,21,1.30
2009,03,26,06,22,1.30
2009,03,26,06,23,1.30
2009,03,26,06,24,1.30
2009,03,26,06,25,1.30
2009,03,26,06,26,1.30
2009,03,26,06,27,1.30
2009,03,26,06,28,1.20
2009,03,26,06,29,1.20
2009,03,26,06,30,1.10
2009,03,26,06,31,1.00
2009,03,26,06,32,1.00
2009,03,26,06,33,0.90
2009,03,26,06,34,0.90
2009,03,26,06,35,0.80
2009,03,26,06,36,0.80
2009,03,26,06,37,0.80
2009,03,26,06,38,0.80
2009,03,26,06,39,0.80
2009,03,26,06,40,0.70
2009,03,26,06,41,0.70
2009,03,26,06,42,0.70
2009,03,26,06,43,0.70
2009,03,26,06,44,0.60
2009,03,26,06,45,0.60
2009,03,26,06,46,0.60
2009,03,26,06,47,0.60
2009,03,26,06,48,0.60
2009,03,26,06,49,0.60
2009,03,26,06,50,0.50
2009,03,26,06,51,0.50
2009,03,26,06,52,0.50
2009,03,26,06,53,0.50
2009,03,26,06,54,0.50
2009,03,26,06,55,0.50
2009,03,26,06,56,0.50
2009,03,26,06,57,0.40
2009,03,26,06,58,0.40
2009,03,26,06,59,0.40
2009,03,26,07,00,0.40
2009,03,26,07,01,0.40
2009,03,26,07,02,0.40
2009,03,26,07,03,0.40
2009,03,26,07,04,0.40
2009,03,26,07,05,0.40
2009,03,26,07,06,0.40
2009,03,26,07,07,0.40
2009,03,26,07,08,0.40
2009,03,26,07,09,0.40
2009,03,26,07,10,0.40
2009,03,26,07,11,0.40
2009,03,26,07,12,0.40
2009,03,26,07,13,0.40
2009,03,26,07,14,0.40
2009,03,26,07,15,0.40
2009,03,26,07,16,0.40
2009,03,26,07,17,0.40
2009,03,26,07,18,0.40
2009,03,26,07,19,0.40
2009,03,26,07,20,0.40
2009,03,26,07,21,0.40
2009,03,26,07,22,0.40
2009,03,26,07,23,0.40
2009,03,26,07,24,0.40
2009,03,26,07,25,0.50
2009,03,26,07,26,0.50
2009,03,26,07,27,0.50
2009,03,26,07,28,0.50
2009,03,26,07,29,0.60
2009,03,26,07,30,0.60
2009,03,26,07,31,0.70
2009,03,26,07,32,0.70
2009,03,26,07,33,0.80
2009,03,26,07,34,0.80
2009,03,26,07,35,0.80
2009,03,26,07,36,0.90
2009,03,26,07,37,0.90
2009,03,26,07,38,0.90
2009,03,26,07,39,1.00
2009,03,26,07,40,1.00
2009,03,26,07,41,1.00
2009,03,26,07,42,1.00
2009,03,26,07,43,1.00
2009,03,26,07,44,1.10
2009,03,26,07,45,1.10
2009,03,26,07,46,1.10
2009,03,26,07,47,1.10
2009,03,26,07,48,1.10
2009,03,26,07,49,1.10
2009,03,26,07,50,1.20
2009,03,26,07,51,1.20
2009,03,26,07,52,1.20
2009,03,26,07,53,1.20
2009,03,26,07,54,1.20
2009,03,26,07,55,1.20
2009,03,26,07,56,1.30
2009,03,26,07,57,1.30
2009,03,26,07,58,1.30
2009,03,26,07,59,1.30
2009,03,26,08,00,1.30
2009,03,26,08,01,1.30
2009,03,26,08,02,1.30
2009,03,26,08,03,1.30
2009,03,26,08,04,1.30
2009,03,26,08,05,1.30
2009,03,26,08,06,1.30
2009,03,26,08,07,1.30
2009,03,26,08,08,1.30
2009,03,26,08,09,1.30
2009,03,26,08,10,1.30
2009,03,26,08,11,1.30
2009,03,26,08,12,1.40
2009,03,26,08,13,1.40
2009,03,26,08,14,1.40
2009,03,26,08,15,1.40
2009,03,26,08,16,1.40
2009,03,26,08,17,1.40
2009,03,26,08,18,1.40
2009,03,26,08,19,1.40
2009,03,26,08,20,1.40
2009,03,26,08,21,1.40
2009,03,26,08,22,1.40
2009,03,26,08,23,1.40
2009,03,26,08,24,1.50
2009,03,26,08,25,1.50
2009,03,26,08,26,1.50
2009,03,26,08,27,1.50
2009,03,26,08,28,1.60
2009,03,26,08,29,1.60
2009,03,26,08,30,1.60
2009,03,26,08,31,1.60
2009,03,26,08,32,1.70
2009,03,26,08,33,1.70
2009,03,26,08,34,1.70
2009,03,26,08,35,1.70
2009,03,26,08,36,1.80
2009,03,26,08,37,1.80
2009,03,26,08,38,1.80
2009,03,26,08,39,1.80
2009,03,26,08,40,1.80
2009,03,26,08,41,1.90
2009,03,26,08,42,1.90
2009,03,26,08,43,1.90
2009,03,26,08,44,2.00
2009,03,26,08,45,2.00
2009,03,26,08,46,2.10
2009,03,26,08,47,2.10
2009,03,26,08,48,2.20
2009,03,26,08,49,2.20
2009,03,26,08,50,2.20
2009,03,26,08,51,2.20
2009,03,26,08,52,2.30
2009,03,26,08,53,2.40
2009,03,26,08,54,2.40
2009,03,26,08,55,2.50
2009,03,26,08,56,2.50
2009,03,26,08,57,2.60
2009,03,26,08,58,2.60
2009,03,26,08,59,2.60
2009,03,26,09,00,2.70
2009,03,26,09,01,2.70
2009,03,26,09,02,2.70
2009,03,26,09,03,2.80
2009,03,26,09,04,2.80
2009,03,26,09,05,2.90
2009,03,26,09,06,2.90
2009,03,26,09,07,2.90
2009,03,26,09,08,3.00
2009,03,26,09,09,3.10
2009,03,26,09,10,3.10
2009,03,26,09,11,3.10
2009,03,26,09,12,3.20
2009,03,26,09,13,3.20
2009,03,26,09,14,3.20
2009,03,26,09,15,3.20
2009,03,26,09,16,3.30
2009,03,26,09,17,3.30
2009,03,26,09,18,3.30
2009,03,26,09,19,3.30
2009,03,26,09,20,3.30
2009,03,26,09,21,3.30
2009,03,26,09,22,3.40
2009,03,26,09,23,3.40
2009,03,26,09,24,3.50
2009,03,26,09,25,3.50
2009,03,26,09,26,3.50
2009,03,26,09,27,3.60
2009,03,26,09,28,3.60
2009,03,26,09,29,3.70
2009,03,26,09,30,3.70
2009,03,26,09,31,3.80
2009,03,26,09,32,3.80
2009,03,26,09,33,3.80
2009,03,26,09,34,3.80
2009,03,26,09,35,3.80
2009,03,26,09,36,3.80
2009,03,26,09,37,3.80
2009,03,26,09,38,3.80
2009,03,26,09,39,3.80
2009,03,26,09,40,3.80
2009,03,26,09,41,3.80
2009,03,26,09,42,3.80
2009,03,26,09,43,3.80
2009,03,26,09,44,3.80
2009,03,26,09,45,3.90
2009,03,26,09,46,3.90
2009,03,26,09,47,4.00
2009,03,26,09,48,4.00
2009,03,26,09,49,4.00
2009,03,26,09,50,4.10
2009,03,26,09,51,4.20
2009,03,26,09,52,4.20
2009,03,26,09,53,4.20
2009,03,26,09,54,4.30
2009,03,26,09,55,4.30
2009,03,26,09,56,4.40
2009,03,26,09,57,4.50
2009,03,26,09,58,4.60
2009,03,26,09,59,4.60
2009,03,26,10,00,4.60
2009,03,26,10,01,4.70
2009,03,26,10,02,4.70
2009,03,26,10,03,4.80
2009,03,26,10,04,4.80
2009,03,26,10,05,4.90
2009,03,26,10,06,4.90
2009,03,26,10,07,4.90
2009,03,26,10,08,5.00
2009,03,26,10,09,5.10
2009,03,26,10,10,5.10
2009,03,26,10,11,5.10
2009,03,26,10,12,5.10
2009,03,26,10,13,5.20
2009,03,26,10,14,5.20
2009,03,26,10,15,5.30
2009,03,26,10,16,5.30
2009,03,26,10,17,5.30
2009,03,26,10,18,5.40
2009,03,26,10,19,5.40
2009,03,26,10,20,5.50
2009,03,26,10,21,5.50
2009,03,26,10,22,5.60
2009,03,26,10,23,5.70
2009,03,26,10,24,5.70
2009,03,26,10,25,5.70
2009,03,26,10,26,5.70
2009,03,26,10,27,5.70
2009,03,26,10,28,5.70
2009,03,26,10,29,5.80
2009,03,26,10,30,5.90
2009,03,26,10,31,6.00
2009,03,26,10,32,6.00
2009,03,26,10,33,6.00
2009,03,26,10,34,6.00
2009,03,26,10,35,6.10
2009,03,26,10,36,6.10
2009,03,26,10,37,6.20
2009,03,26,10,38,6.20
2009,03,26,10,39,6.20
2009,03,26,10,40,6.30
2009,03,26,10,41,6.30
2009,03,26,10,42,6.30
2009,03,26,10,43,6.40
2009,03,26,10,44,6.40
2009,03,26,10,45,6.40
2009,03,26,10,46,6.60
2009,03,26,10,47,6.60
2009,03,26,10,48,6.60
2009,03,26,10,49,6.70
2009,03,26,10,50,6.70
2009,03,26,10,51,6.80
2009,03,26,10,52,6.80
2009,03,26,10,53,6.70
2009,03,26,10,54,6.70
2009,03,26,10,55,6.70
2009,03,26,10,56,6.70
2009,03,26,10,57,6.80
2009,03,26,10,58,6.80
2009,03,26,10,59,6.90
2009,03,26,11,00,7.00
2009,03,26,11,01,7.10
2009,03,26,11,02,7.20
2009,03,26,11,03,7.30
2009,03,26,11,04,7.40
2009,03,26,11,05,7.40
2009,03,26,11,06,7.30
2009,03,26,11,07,7.10
2009,03,26,11,08,7.00
2009,03,26,11,09,7.00
2009,03,26,11,10,6.90
2009,03,26,11,11,6.90
2009,03,26,11,12,6.80
2009,03,26,11,13,6.90
2009,03,26,11,14,6.90
2009,03,26,11,15,7.00
2009,03,26,11,16,7.00
2009,03,26,11,17,7.10
2009,03,26,11,18,7.10
2009,03,26,11,19,7.20
2009,03,26,11,20,7.20
2009,03,26,11,21,7.20
2009,03,26,11,22,7.10
2009,03,26,11,23,7.10
2009,03,26,11,24,7.20
2009,03,26,11,25,7.20
2009,03,26,11,26,7.30
2009,03,26,11,27,7.20
2009,03,26,11,28,7.20
2009,03,26,11,29,7.10
2009,03,26,11,30,7.10
2009,03,26,11,31,7.00
2009,03,26,11,32,7.00
2009,03,26,11,33,7.10
2009,03,26,11,34,7.10
2009,03,26,11,35,7.20
2009,03,26,11,36,7.20
2009,03,26,11,37,7.30
2009,03,26,11,38,7.20
2009,03,26,11,39,7.30
2009,03,26,11,40,7.30
2009,03,26,11,41,7.40
2009,03,26,11,42,7.40
2009,03,26,11,43,7.40
2009,03,26,11,44,7.30
2009,03,26,11,45,7.30
2009,03,26,11,46,7.20
2009,03,26,11,47,7.20
2009,03,26,11,48,7.20
2009,03,26,11,49,7.30
2009,03,26,11,50,7.30
2009,03,26,11,51,7.30
2009,03,26,11,52,7.30
2009,03,26,11,53,7.20
2009,03,26,11,54,7.10
2009,03,26,11,55,7.10
2009,03,26,11,56,7.00
2009,03,26,11,57,7.00
2009,03,26,11,58,7.00
2009,03,26,11,59,7.10
2009,03,26,12,00,7.20
2009,03,26,12,01,7.20
2009,03,26,12,02,7.30
2009,03,26,12,03,7.30
2009,03,26,12,04,7.30
2009,03,26,12,05,7.30
2009,03,26,12,06,7.30
2009,03,26,12,07,7.30
2009,03,26,12,08,7.30
2009,03,26,12,09,7.30
2009,03,26,12,10,7.30
2009,03,26,12,11,7.40
2009,03,26,12,12,7.40
2009,03,26,12,13,7.50
2009,03,26,12,14,7.50
2009,03,26,12,15,7.50
2009,03,26,12,16,7.60
2009,03,26,12,17,7.60
2009,03,26,12,18,7.60
2009,03,26,12,19,7.60
2009,03,26,12,20,7.60
2009,03,26,12,21,7.60
2009,03,26,12,22,7.70
2009,03,26,12,23,7.70
2009,03,26,12,24,7.80
2009,03,26,12,25,7.80
2009,03,26,12,26,7.90
2009,03,26,12,27,7.90
2009,03,26,12,28,7.90
2009,03,26,12,29,8.00
2009,03,26,12,30,8.10
2009,03,26,12,31,8.20
2009,03,26,12,32,8.20
2009,03,26,12,33,8.20
2009,03,26,12,34,8.10
2009,03,26,12,35,8.10
2009,03,26,12,36,8.00
2009,03,26,12,37,8.00
2009,03,26,12,38,8.00
2009,03,26,12,39,8.00
2009,03,26,12,40,7.90
2009,03,26,12,41,7.90
2009,03,26,12,42,7.90
2009,03,26,12,43,8.00
2009,03,26,12,44,8.00
2009,03,26,12,45,8.00
2009,03,26,12,46,8.00
2009,03,26,12,47,8.00
2009,03,26,12,48,8.10
2009,03,26,12,49,8.20
2009,03,26,12,50,8.10
2009,03,26,12,51,8.10
2009,03,26,12,52,8.10
2009,03,26,12,53,8.10
2009,03,26,12,54,8.10
2009,03,26,12,55,8.20
2009,03,26,12,56,8.10
2009,03,26,12,57,8.10
2009,03,26,12,58,8.20
2009,03,26,12,59,8.20
2009,03,26,13,00,8.20
2009,03,26,13,01,8.20
2009,03,26,13,02,8.20
2009,03,26,13,03,8.20
2009,03,26,13,04,8.30
2009,03,26,13,05,8.30
2009,03,26,13,06,8.30
2009,03,26,13,07,8.30
2009,03,26,13,08,8.30
2009,03,26,13,09,8.40
2009,03,26,13,10,8.40
2009,03,26,13,11,8.50
2009,03,26,13,12,8.50
2009,03,26,13,13,8.60
2009,03,26,13,14,8.60
2009,03,26,13,15,8.60
2009,03,26,13,16,8.70
2009,03,26,13,17,8.70
2009,03,26,13,18,8.80
2009,03,26,13,19,8.80
2009,03,26,13,20,8.70
2009,03,26,13,21,8.70
2009,03,26,13,22,8.70
2009,03,26,13,23,8.70
2009,03,26,13,24,8.70
2009,03,26,13,25,8.80
2009,03,26,13,26,8.90
2009,03,26,13,27,9.00
2009,03,26,13,28,9.10
2009,03,26,13,29,9.00
2009,03,26,13,30,8.70
2009,03,26,13,31,8.30
2009,03,26,13,32,8.10
2009,03,26,13,33,7.90
2009,03,26,13,34,7.80
2009,03,26,13,35,7.80
2009,03,26,13,36,7.80
2009,03,26,13,37,7.90
2009,03,26,13,38,7.90
2009,03,26,13,39,7.90
2009,03,26,13,40,7.80
2009,03,26,13,41,7.80
2009,03,26,13,42,7.90
2009,03,26,13,43,7.80
2009,03,26,13,44,7.90
2009,03,26,13,45,7.90
2009,03,26,13,46,7.90
2009,03,26,13,47,7.80
2009,03,26,13,48,7.90
2009,03,26,13,49,7.90
2009,03,26,13,50,7.80
2009,03,26,13,51,7.80
2009,03,26,13,52,7.80
2009,03,26,13,53,7.80
2009,03,26,13,54,7.80
2009,03,26,13,55,7.90
2009,03,26,13,56,7.90
2009,03,26,13,57,8.00
2009,03,26,13,58,8.00
2009,03,26,13,59,8.20
2009,03,26,14,00,8.30
2009,03,26,14,01,8.30
2009,03,26,14,02,8.20
2009,03,26,14,03,8.20
2009,03,26,14,04,8.30
2009,03,26,14,05,8.50
2009,03,26,14,06,8.60
2009,03,26,14,07,8.70
2009,03,26,14,08,8.90
2009,03,26,14,09,8.90
2009,03,26,14,10,8.80
2009,03,26,14,11,8.70
2009,03,26,14,12,8.60
2009,03,26,14,13,8.40
2009,03,26,14,14,8.30
2009,03,26,14,15,8.20
2009,03,26,14,16,8.20
2009,03,26,14,17,8.30
2009,03,26,14,18,8.40
2009,03,26,14,19,8.30
2009,03,26,14,20,8.10
2009,03,26,14,21,8.00
2009,03,26,14,22,8.00
2009,03,26,14,23,7.90
2009,03,26,14,24,7.90
2009,03,26,14,25,8.00
2009,03,26,14,26,8.10
2009,03,26,14,27,8.20
2009,03,26,14,28,8.30
2009,03,26,14,29,8.40
2009,03,26,14,30,8.40
2009,03,26,14,31,8.30
2009,03,26,14,32,8.20
2009,03,26,14,33,8.20
2009,03,26,14,34,8.20
2009,03,26,14,35,8.20
2009,03,26,14,36,8.30
2009,03,26,14,37,8.30
2009,03,26,14,38,8.10
2009,03,26,14,39,8.00
2009,03,26,14,40,7.90
2009,03,26,14,41,7.70
2009,03,26,14,42,7.50
2009,03,26,14,43,7.50
2009,03,26,14,44,7.60
2009,03,26,14,45,7.60
2009,03,26,14,46,7.60
2009,03,26,14,47,7.70
2009,03,26,14,48,7.80
2009,03,26,14,49,7.90
2009,03,26,14,50,8.00
2009,03,26,14,51,7.90
2009,03,26,14,52,7.60
2009,03,26,14,53,7.40
2009,03,26,14,54,7.30
2009,03,26,14,55,7.30
2009,03,26,14,56,7.40
2009,03,26,14,57,7.50
2009,03,26,14,58,7.50
2009,03,26,14,59,7.60
2009,03,26,15,00,7.70
2009,03,26,15,01,7.80
2009,03,26,15,02,7.80
2009,03,26,15,03,7.80
2009,03,26,15,04,7.80
2009,03,26,15,05,7.80
2009,03,26,15,06,7.80
2009,03,26,15,07,7.80
2009,03,26,15,08,7.80
2009,03,26,15,09,7.80
2009,03,26,15,10,7.80
2009,03,26,15,11,7.80
2009,03,26,15,12,7.70
2009,03,26,15,13,7.70
2009,03,26,15,14,7.80
2009,03,26,15,15,7.80
2009,03,26,15,16,7.80
2009,03,26,15,17,7.80
2009,03,26,15,18,7.80
2009,03,26,15,19,7.80
2009,03,26,15,20,7.80
2009,03,26,15,21,7.70
2009,03,26,15,22,7.60
2009,03,26,15,23,7.60
2009,03,26,15,24,7.60
2009,03,26,15,25,7.80
2009,03,26,15,26,7.80
2009,03,26,15,27,7.80
2009,03,26,15,28,7.80
2009,03,26,15,29,7.80
2009,03,26,15,30,7.80
2009,03,26,15,31,7.90
2009,03,26,15,32,7.90
2009,03,26,15,33,8.00
2009,03,26,15,34,8.00
2009,03,26,15,35,8.00
2009,03,26,15,36,8.00
2009,03,26,15,37,8.00
2009,03,26,15,38,7.90
2009,03,26,15,39,7.90
2009,03,26,15,40,7.90
2009,03,26,15,41,7.80
2009,03,26,15,42,7.80
2009,03,26,15,43,7.70
2009,03,26,15,44,7.70
2009,03,26,15,45,7.70
2009,03,26,15,46,7.70
2009,03,26,15,47,7.70
2009,03,26,15,48,7.70
2009,03,26,15,49,7.60
2009,03,26,15,50,7.50
2009,03,26,15,51,7.40
2009,03,26,15,52,7.50
2009,03,26,15,53,7.50
2009,03,26,15,54,7.50
2009,03,26,15,55,7.40
2009,03,26,15,56,7.40
2009,03,26,15,57,7.40
2009,03,26,15,58,7.40
2009,03,26,15,59,7.30
2009,03,26,16,00,7.30
2009,03,26,16,01,7.30
2009,03,26,16,02,7.30
2009,03,26,16,03,7.30
2009,03,26,16,04,7.30
2009,03,26,16,05,7.40
2009,03,26,16,06,7.50
2009,03,26,16,07,7.50
2009,03,26,16,08,7.40
2009,03,26,16,09,7.30
2009,03,26,16,10,7.30
2009,03,26,16,11,7.30
2009,03,26,16,12,7.30
2009,03,26,16,13,7.30
2009,03,26,16,14,7.30
2009,03,26,16,15,7.30
2009,03,26,16,16,7.30
2009,03,26,16,17,7.30
2009,03,26,16,18,7.30
2009,03,26,16,19,7.30
2009,03,26,16,20,7.30
2009,03,26,16,21,7.30
2009,03,26,16,22,7.30
2009,03,26,16,23,7.30
2009,03,26,16,24,7.30
2009,03,26,16,25,7.30
2009,03,26,16,26,7.30
2009,03,26,16,27,7.30
2009,03,26,16,28,7.30
2009,03,26,16,29,7.40
2009,03,26,16,30,7.40
2009,03,26,16,31,7.40
2009,03,26,16,32,7.40
2009,03,26,16,33,7.40
2009,03,26,16,34,7.40
2009,03,26,16,35,7.40
2009,03,26,16,36,7.30
2009,03,26,16,37,7.30
2009,03,26,16,38,7.30
2009,03,26,16,39,7.30
2009,03,26,16,40,7.30
2009,03,26,16,41,7.30
2009,03,26,16,42,7.30
2009,03,26,16,43,7.30
2009,03,26,16,44,7.20
2009,03,26,16,45,7.20
2009,03,26,16,46,7.10
2009,03,26,16,47,7.10
2009,03,26,16,48,7.00
2009,03,26,16,49,7.00
2009,03,26,16,50,7.10
2009,03,26,16,51,7.10
2009,03,26,16,52,7.20
2009,03,26,16,53,7.20
2009,03,26,16,54,7.10
2009,03,26,16,55,7.10
2009,03,26,16,56,7.10
2009,03,26,16,57,7.10
2009,03,26,16,58,7.00
2009,03,26,16,59,7.00
2009,03,26,17,00,7.00
2009,03,26,17,01,7.00
2009,03,26,17,02,6.90
2009,03,26,17,03,6.90
2009,03,26,17,04,7.00
2009,03,26,17,05,7.00
2009,03,26,17,06,7.00
2009,03,26,17,07,7.00
2009,03,26,17,08,7.00
2009,03,26,17,09,6.90
2009,03,26,17,10,6.90
2009,03,26,17,11,6.90
2009,03,26,17,12,6.80
2009,03,26,17,13,6.80
2009,03,26,17,14,6.80
2009,03,26,17,15,6.80
2009,03,26,17,16,6.80
2009,03,26,17,17,6.80
2009,03,26,17,18,6.90
2009,03,26,17,19,6.90
2009,03,26,17,20,6.90
2009,03,26,17,21,7.00
2009,03,26,17,22,7.00
2009,03,26,17,23,7.00
2009,03,26,17,24,7.00
2009,03,26,17,25,7.00
2009,03,26,17,26,6.90
2009,03,26,17,27,6.90
2009,03,26,17,28,6.90
2009,03,26,17,29,6.90
2009,03,26,17,30,6.90
2009,03,26,17,31,6.90
2009,03,26,17,32,6.90
2009,03,26,17,33,6.90
2009,03,26,17,34,6.90
2009,03,26,17,35,6.90
2009,03,26,17,36,6.90
2009,03,26,17,37,6.90
2009,03,26,17,38,6.90
2009,03,26,17,39,7.00
2009,03,26,17,40,7.00
2009,03,26,17,41,7.00
2009,03,26,17,42,7.10
2009,03,26,17,43,7.10
2009,03,26,17,44,7.10
2009,03,26,17,45,7.10
2009,03,26,17,46,7.10
2009,03,26,17,47,7.10
2009,03,26,17,48,7.10
2009,03,26,17,49,7.10
2009,03,26,17,50,7.10
2009,03,26,17,51,7.10
2009,03,26,17,52,7.00
2009,03,26,17,53,7.00
2009,03,26,17,54,7.00
2009,03,26,17,55,7.00
2009,03,26,17,56,7.10
2009,03,26,17,57,7.10
2009,03,26,17,58,7.10
2009,03,26,17,59,7.10
2009,03,26,18,00,7.10
2009,03,26,18,01,7.10
2009,03,26,18,02,7.10
2009,03,26,18,03,7.10
2009,03,26,18,04,7.10
2009,03,26,18,05,7.10
2009,03,26,18,06,7.10